Location: Robert Ferguson Observatory
(38.4385°N, 122.5078°W)
Time: 06:29:24
(UTC-08:00)

Daily predictions for brighter satellites

Satellite Brightness Start Highest point End
(mag) Time Altitude Azimuth Time Altitude Azimuth Time Altitude Azimuth
Cosmos 1544 Rocket 4.1 17:10:24 10° N 17:14:34 37° ENE 17:18:42 10° SE
Cosmos 1048 Rocket 4.5 17:09:20 10° NNW 17:14:39 71° WSW 17:19:58 10° S
COSMO-SKYMED 1 4.1 17:13:45 10° NE 17:16:34 17° E 17:19:22 10° SE
Cosmos 1975 Rocket 3.1 17:12:27 10° S 17:16:45 87° W 17:21:05 10° N
CZ-3B DEB 1.7 17:18:36 10° SW 17:21:40 81° SE 17:29:20 10° NE
Tiangong 1 2.7 17:23:48 10° SSW 17:26:15 23° SSE 17:28:43 10° E
PAYLOAD A 4.0 17:25:31 10° SSE 17:30:17 83° WSW 17:35:16 10° NNW
Cosmos 1536 Rocket 4.0 17:29:11 10° SSE 17:33:23 42° E 17:37:35 10° NNE
Okean 1 3.8 17:33:51 10° SSE 17:37:36 39° E 17:41:24 10° NNE
Cosmos 1812 2.7 17:37:03 10° S 17:40:51 62° E 17:44:40 10° NNE
YAOGAN 1 2.5 17:37:14 10° SSE 17:41:32 76° ENE 17:45:53 10° N
CZ-4 R/B 4.4 17:40:40 10° SSE 17:44:44 59° ENE 17:48:50 10° N
ISS -1.3 17:42:24 10° WNW 17:44:58 20° NNW 17:47:32 10° NNE
COSMOS 2487 3.9 17:42:25 10° NNE 17:45:01 19° ENE 17:47:27 11° ESE
SPOT 3 Rocket 3.6 17:40:10 10° SSE 17:45:22 89° W 17:50:35 10° NNW
Cosmos 921 Rocket 4.3 17:46:55 10° SE 17:50:03 20° E 17:51:26 18° ENE
AQUARIUS 4.4 17:47:36 10° S 17:52:04 76° WSW 17:56:36 10° NNW
Meteor 1-18 Rocket 4.2 17:46:35 10° S 17:52:12 83° E 17:57:58 10° N
Cosmos 1346 Rocket 3.2 17:49:38 10° SSE 17:53:16 38° E 17:56:32 12° NNE
Cosmos 1844 Rocket 3.7 17:48:31 10° SW 17:53:51 46° WNW 17:59:17 10° N
ASTRO F (AKARI) 4.1 17:53:01 10° NNE 17:56:09 86° ESE 17:59:18 10° SSW
USA 234 4.0 17:51:35 10° NE 17:57:44 45° NW 18:03:51 10° WSW
Cosmos 1455 Rocket 3.2 17:59:37 10° N 18:04:01 77° W 18:08:26 10° S
SKYMED 2 3.6 18:00:37 10° NNE 18:04:54 58° E 18:09:10 10° S
IDEFIX/ARIANE 42P 3.2 18:01:08 10° S 18:06:15 59° W 18:11:23 10° NNW
Okean 1-7 Rocket 4.2 18:03:13 10° SSE 18:07:20 35° E 18:09:44 20° NE
Cosmos 494 Rocket 4.1 18:02:55 10° NNW 18:08:11 83° WSW 18:13:26 10° SSE
FALCON 9 R/B 4.1 17:40:15 10° WSW 18:09:54 67° S 18:15:38 20° E
OTV 4 3.2 18:09:20 10° WSW 18:11:24 17° SSW 18:13:28 10° SSE
NOSS 3-3 (A) 4.1 18:06:57 10° SW 18:13:06 79° WNW 18:18:57 14° NNE
NOSS 3-3 (C) 4.1 18:07:03 10° SW 18:13:12 80° WNW 18:19:02 14° NNE
Cosmos 2297 3.8 18:07:50 10° S 18:13:17 53° ESE 18:17:03 20° NE
Delta 2 Rocket 4.2 18:09:49 10° SW 18:13:21 36° SSE 18:15:08 24° ESE
CZ-4 R/B 3.6 18:10:16 10° SSW 18:13:56 29° W 18:17:36 10° NW
MSX 4.2 18:17:38 10° S 18:23:20 66° WSW 18:29:04 10° NNW
ATLAS 2AS CENTAUR R/B 3.4 18:15:33 10° NW 18:23:30 67° WSW 18:30:51 10° SSE
Cosmos 1975 3.1 18:19:41 10° NNW 18:23:44 68° W 18:27:44 10° S
Cosmos 2278 Rocket 2.8 18:21:55 10° SW 18:27:26 55° WNW 18:33:00 10° NNE
CZ-2C R/B 4.2 18:23:13 10° SSW 18:27:41 34° W 18:32:18 10° NNW
Intercosmos 25 4.5 18:32:28 24° SSE 18:32:28 24° SSE 18:33:57 10° SSE
Cosmos 1934 Rocket 4.3 18:24:57 10° N 18:30:43 39° ENE 18:36:31 10° SE
Cosmos 1809 Rocket 4.4 18:25:42 10° N 18:31:52 89° W 18:37:59 10° S
Genesis I 3.0 18:29:04 10° NNW 18:32:59 67° ENE 18:33:34 57° ESE
Meteor 1-19 Rocket 4.2 18:32:35 10° S 18:38:19 72° E 18:43:21 14° NNE
Cosmos 1484 Rocket 3.6 18:35:14 10° S 18:38:53 48° W 18:42:31 10° NNW
Timation 2 Rocket 4.1 18:34:40 10° NNW 18:41:30 71° ENE 18:48:22 10° SSE
TIMED 4.5 18:37:52 10° SSW 18:42:14 81° WNW 18:43:48 39° N
Cosmos 1743 4.0 18:44:53 29° SSE 18:44:53 29° SSE 18:46:54 10° S
SL-8 R/B 4.5 18:41:12 10° W 18:45:44 41° NNW 18:46:49 36° N
NOAA 12 3.9 18:41:21 10° SSE 18:46:37 76° ENE 18:51:53 10° N
Cosmos 2239 Rocket 4.3 18:40:26 10° N 18:46:38 69° E 18:52:45 10° SSE
ATLAS 3B CENTAUR R/B 4.0 18:31:04 10° WSW 18:49:07 48° S 18:53:30 25° SE
COSMO-SKYMED 1 3.9 18:48:49 10° N 18:52:52 38° WNW 18:56:52 10° SW
Cosmos 2082 Rocket 2.0 18:48:46 10° NNW 18:54:28 77° ENE 18:58:00 24° SSE
METEOR-M 4.0 18:49:57 10° SSE 18:55:15 77° ENE 19:00:37 10° N
Cosmos 1833 Rocket 2.5 18:50:09 10° NNW 18:55:48 67° ENE 18:56:48 55° ESE
Meteor 1-28 Rocket 3.8 18:55:31 46° NW 18:56:13 54° WNW 18:59:55 10° SSW
Cosmos 1821 Rocket 3.8 18:50:10 10° N 18:56:17 78° E 19:02:23 10° S
Meteor 2-8 Rocket 4.3 18:51:18 10° S 18:57:15 61° E 18:58:19 53° NE
Tiangong 1 3.4 18:59:16 10° W 19:00:36 23° W 19:00:36 23° W
BREEZE M DEB (TANK) 3.2 18:59:16 10° WSW 19:05:51 47° NW 19:05:51 47° NW
Meteor 1-23 Rocket 4.1 19:01:46 10° S 19:07:30 80° E 19:08:03 71° NE
NOSS 2-1 (D) 4.1 19:05:22 10° SW 19:08:20 48° WSW 19:08:20 48° WSW
NOSS 2-1 (C) 4.2 19:06:03 10° SW 19:08:58 47° WSW 19:08:58 47° WSW
GEOS 3 Rocket 4.1 19:15:54 34° S 19:17:57 57° WSW 19:23:00 10° NW
Meteor 2-4 Rocket 3.9 19:16:41 10° SSW 19:22:02 65° W 19:22:50 57° NW
Cosmos 1025 Rocket 4.1 19:18:03 10° SSW 19:21:23 42° WSW 19:21:23 42° WSW
Cosmos 2056 Rocket 4.0 19:17:35 10° SSW 19:21:38 53° SSW 19:21:38 53° SSW
CZ-3B DEB 4.4 19:52:57 10° WNW 19:58:45 32° N 19:59:30 32° N
NOSS 3-4 (A) 4.4 19:52:10 10° NNW 19:57:00 48° NW 19:57:00 48° NW
NOSS 3-4 (C) 4.4 19:52:16 10° NNW 19:57:03 48° NW 19:57:03 48° NW
